TimeMST,TemperatureF,Dew PointF,Humidity,Sea Level PressureIn,VisibilityMPH,Wind Direction,Wind SpeedMPH,Gust SpeedMPH,PrecipitationIn,Events,Conditions,WindDirDegrees,DateUTC
12:15 AM,66.2,48.2,52,30.35,10.0,ESE,11.5,-,N/A,,Mostly Cloudy,110,2013-07-03 07:15:00
12:35 AM,68.0,46.4,46,30.36,10.0,ENE,6.9,-,N/A,,Mostly Cloudy,70,2013-07-03 07:35:00
12:55 AM,64.4,50.0,59,30.37,10.0,East,17.3,23.0,N/A,,Overcast,80,2013-07-03 07:55:00
1:15 AM,68.0,46.4,46,30.33,10.0,South,13.8,20.7,N/A,,Overcast,180,2013-07-03 08:15:00
1:35 AM,64.4,50.0,59,30.30,10.0,SSE,6.9,-,N/A,,Partly Cloudy,150,2013-07-03 08:35:00
1:55 AM,64.4,50.0,59,30.30,10.0,Calm,Calm,-,N/A,,Clear,0,2013-07-03 08:55:00
2:15 AM,64.4,48.2,56,30.29,10.0,Calm,Calm,-,N/A,,Partly Cloudy,0,2013-07-03 09:15:00
2:35 AM,68.0,46.4,46,30.29,10.0,WSW,3.5,-,N/A,,Clear,250,2013-07-03 09:35:00
2:55 AM,64.4,50.0,59,30.29,10.0,Calm,Calm,-,N/A,,Clear,0,2013-07-03 09:55:00
3:15 AM,64.4,48.2,56,30.30,10.0,Calm,Calm,-,N/A,,Clear,0,2013-07-03 10:15:00
3:35 AM,62.6,48.2,59,30.29,10.0,Calm,Calm,-,N/A,,Clear,0,2013-07-03 10:35:00
3:55 AM,62.6,46.4,55,30.30,10.0,Calm,Calm,-,N/A,,Clear,0,2013-07-03 10:55:00
4:15 AM,60.8,48.2,63,30.30,10.0,SE,5.8,-,N/A,,Clear,130,2013-07-03 11:15:00
4:35 AM,62.6,48.2,59,30.30,10.0,Calm,Calm,-,N/A,,Clear,0,2013-07-03 11:35:00
4:55 AM,62.6,48.2,59,30.30,10.0,ESE,4.6,-,N/A,,Clear,110,2013-07-03 11:55:00
5:15 AM,60.8,48.2,63,30.30,10.0,Calm,Calm,-,N/A,,Clear,0,2013-07-03 12:15:00
5:35 AM,60.8,46.4,59,30.30,10.0,Calm,Calm,-,N/A,,Clear,0,2013-07-03 12:35:00
5:55 AM,60.8,48.2,63,30.31,10.0,East,5.8,-,N/A,,Clear,90,2013-07-03 12:55:00
6:15 AM,64.4,48.2,56,30.31,10.0,Calm,Calm,-,N/A,,Partly Cloudy,0,2013-07-03 13:15:00
6:35 AM,62.6,48.2,59,30.32,10.0,Calm,Calm,-,N/A,,Partly Cloudy,0,2013-07-03 13:35:00
6:55 AM,64.4,48.2,56,30.33,10.0,Calm,Calm,-,N/A,,Clear,0,2013-07-03 13:55:00
7:15 AM,68.0,50.0,52,30.33,10.0,Calm,Calm,-,N/A,,Clear,0,2013-07-03 14:15:00
7:35 AM,68.0,50.0,52,30.34,10.0,Calm,Calm,-,N/A,,Clear,0,2013-07-03 14:35:00
7:55 AM,69.8,50.0,49,30.34,10.0,Calm,Calm,-,N/A,,Clear,0,2013-07-03 14:55:00
8:15 AM,75.2,48.2,38,30.33,10.0,Calm,Calm,-,N/A,,Clear,0,2013-07-03 15:15:00
8:35 AM,75.2,46.4,36,30.33,10.0,West,6.9,-,N/A,,Clear,280,2013-07-03 15:35:00
8:55 AM,77.0,48.2,36,30.33,10.0,West,10.4,-,N/A,,Clear,280,2013-07-03 15:55:00
9:15 AM,78.8,48.2,34,30.32,10.0,WSW,12.7,-,N/A,,Clear,250,2013-07-03 16:15:00
9:35 AM,80.6,48.2,32,30.32,10.0,West,12.7,-,N/A,,Clear,270,2013-07-03 16:35:00
9:55 AM,80.6,48.2,32,30.32,10.0,West,13.8,-,N/A,,Clear,260,2013-07-03 16:55:00
10:15 AM,80.6,48.2,32,30.33,10.0,WSW,11.5,-,N/A,,Clear,250,2013-07-03 17:15:00
10:35 AM,80.6,48.2,32,30.32,10.0,West,10.4,-,N/A,,Clear,260,2013-07-03 17:35:00
10:55 AM,80.6,48.2,32,30.32,10.0,WNW,11.5,16.1,N/A,,Clear,290,2013-07-03 17:55:00
11:15 AM,82.4,46.4,28,30.32,10.0,NW,8.1,-,N/A,,Clear,320,2013-07-03 18:15:00
11:35 AM,82.4,46.4,28,30.32,10.0,NW,6.9,-,N/A,,Clear,310,2013-07-03 18:35:00
11:55 AM,82.4,46.4,28,30.31,10.0,West,10.4,16.1,N/A,,Clear,280,2013-07-03 18:55:00
12:15 PM,82.4,46.4,28,30.30,10.0,West,8.1,-,N/A,,Clear,280,2013-07-03 19:15:00
12:35 PM,82.4,46.4,28,30.30,10.0,West,5.8,-,N/A,,Clear,280,2013-07-03 19:35:00
12:55 PM,84.2,46.4,27,30.29,10.0,WSW,6.9,-,N/A,,Clear,250,2013-07-03 19:55:00
1:15 PM,84.2,46.4,27,30.28,10.0,WSW,4.6,-,N/A,,Clear,240,2013-07-03 20:15:00
1:35 PM,86.0,46.4,25,30.28,10.0,West,9.2,-,N/A,,Clear,260,2013-07-03 20:35:00
1:55 PM,86.0,44.6,23,30.27,10.0,Calm,Calm,-,N/A,,Clear,0,2013-07-03 20:55:00
2:15 PM,80.6,48.2,32,30.28,10.0,ESE,21.9,32.2,N/A,,Scattered Clouds,120,2013-07-03 21:15:00
2:35 PM,80.6,48.2,32,30.28,10.0,SE,19.6,28.8,N/A,,Scattered Clouds,140,2013-07-03 21:35:00
2:55 PM,80.6,46.4,30,30.27,10.0,SSE,20.7,29.9,N/A,,Clear,160,2013-07-03 21:55:00
3:15 PM,82.4,42.8,25,30.25,10.0,South,20.7,26.5,N/A,,Clear,170,2013-07-03 22:15:00
3:35 PM,82.4,41.0,23,30.24,10.0,South,12.7,20.7,N/A,,Clear,180,2013-07-03 22:35:00
3:55 PM,82.4,41.0,23,30.25,10.0,SSW,9.2,-,N/A,,Partly Cloudy,210,2013-07-03 22:55:00
4:15 PM,80.6,39.2,23,30.22,10.0,SSW,15.0,20.7,N/A,,Clear,200,2013-07-03 23:15:00
4:35 PM,82.4,41.0,23,30.22,10.0,SW,10.4,-,N/A,,Clear,220,2013-07-03 23:35:00
4:55 PM,84.2,39.2,20,30.23,10.0,WSW,20.7,-,N/A,,Clear,240,2013-07-03 23:55:00
5:15 PM,75.2,48.2,38,30.23,10.0,SW,21.9,33.4,N/A,,Clear,220,2013-07-04 00:15:00
5:35 PM,73.4,48.2,41,30.22,10.0,SW,17.3,27.6,N/A,,Clear,230,2013-07-04 00:35:00
5:55 PM,75.2,46.4,36,30.22,10.0,SW,17.3,26.5,N/A,,Clear,230,2013-07-04 00:55:00
6:15 PM,75.2,46.4,36,30.22,10.0,WSW,18.4,27.6,N/A,,Clear,240,2013-07-04 01:15:00
6:35 PM,75.2,46.4,36,30.22,10.0,WSW,8.1,20.7,N/A,,Clear,240,2013-07-04 01:35:00
6:55 PM,73.4,48.2,41,30.22,10.0,WSW,8.1,16.1,N/A,,Clear,240,2013-07-04 01:55:00
7:15 PM,73.4,46.4,38,30.22,10.0,Calm,Calm,-,N/A,,Clear,0,2013-07-04 02:15:00
7:35 PM,71.6,46.4,41,30.22,10.0,Calm,Calm,-,N/A,,Clear,0,2013-07-04 02:35:00
7:55 PM,69.8,48.2,46,30.23,10.0,SSE,4.6,-,N/A,,Clear,150,2013-07-04 02:55:00
8:15 PM,69.8,46.4,43,30.24,10.0,Calm,Calm,-,N/A,,Clear,0,2013-07-04 03:15:00
8:35 PM,69.8,44.6,40,30.24,10.0,Calm,Calm,-,N/A,,Clear,0,2013-07-04 03:35:00
8:55 PM,66.2,46.4,49,30.25,10.0,Calm,Calm,-,N/A,,Clear,0,2013-07-04 03:55:00
9:15 PM,66.2,46.4,49,30.25,10.0,Calm,Calm,-,N/A,,Clear,0,2013-07-04 04:15:00
9:35 PM,64.4,48.2,56,30.26,10.0,Calm,Calm,-,N/A,,Clear,0,2013-07-04 04:35:00
9:55 PM,66.2,46.4,49,30.26,10.0,Calm,Calm,-,N/A,,Clear,0,2013-07-04 04:55:00
10:15 PM,66.2,44.6,46,30.25,10.0,Calm,Calm,-,N/A,,Clear,0,2013-07-04 05:15:00
10:35 PM,62.6,48.2,59,30.25,10.0,Calm,Calm,-,N/A,,Clear,0,2013-07-04 05:35:00
10:55 PM,62.6,48.2,59,30.25,10.0,Calm,Calm,-,N/A,,Clear,0,2013-07-04 05:55:00
11:15 PM,64.4,48.2,56,30.25,10.0,Calm,Calm,-,N/A,,Clear,0,2013-07-04 06:15:00
11:35 PM,66.2,46.4,49,30.25,10.0,Calm,Calm,-,N/A,,Clear,0,2013-07-04 06:35:00
11:55 PM,66.2,46.4,49,30.24,10.0,Calm,Calm,-,N/A,,Clear,0,2013-07-04 06:55:00